Miles City, MT

2:21 PM MDT on April 24, 2017 (GMT -0600)
Wiley

Weather History for KMLS - October, 2013

Change the Weather History Date:

Friday, October 11, 2013

  Actual Average Record
Temperature  
Mean Temperature 46 °F 49 °F  
Max Temperature 54 °F 62 °F 89 °F (1995)
Min Temperature 38 °F 36 °F 18 °F (1959)
Degree Days  
Heating Degree Days 19 16  
Month to date heating degree days 169 159  
Since 1 July heating degree days 272 395  
Cooling Degree Days 0 0  
Month to date cooling degree days 0 0  
Year to date cooling degree days 877 728  
Moisture  
Dew Point 34 °F    
Average Humidity 52    
Maximum Humidity 76    
Minimum Humidity 28    
Precipitation  
Precipitation 0.04 in 0.04 in 0.23 in (2008)
Month to date precipitation 0.31 0.39  
Year to date precipitation 15.74 11.23  
Sea Level Pressure  
Sea Level Pressure 29.81 in    
Wind  
Wind Speed 21 mph (NW)    
Max Wind Speed 33 mph    
Max Gust Speed 45 mph    
Visibility 10 miles    
Events Rain    
T = Trace of Precipitation, MM = Missing Value Source: NWS Daily Summary

Daily Weather History Graph

Daily Weather History Graph

Search for Another Location

Airport or City:

Trip Planner

Search our weather history database for the weather conditions in past years. The results will help you decide how hot, cold, wet, or windy it might be!

Date:

Astronomy

Oct. 11, 2013 Rise Set
Actual Time 7:15 AM MDT 6:23 PM MDT
Civil Twilight 6:45 AM MDT 6:53 PM MDT
Nautical Twilight 6:10 AM MDT 7:28 PM MDT
Astronomical Twilight 5:35 AM MDT 8:03 PM MDT
Moon 2:10 PM MDT (10/11) No Moon Set
Length of Visible Light 12h 08m
Length of Day
11h 07m
Waxing Crescent, 48% of the Moon is Illuminated
Oct 11
Waxing Crescent
Oct 11
First Quarter
Oct 18
Full
Oct 26
Last Quarter
Nov 3
New

Hourly Weather History & Observations

Time (MDT) Temp. Windchill Dew Point Humidity Pressure Visibility Wind Dir Wind Speed Gust Speed Precip Events Conditions
12:53 AM 54.0 °F - 39.0 °F 57% 29.65 in 10.0 mi NNW 10.4 mph - N/A   Overcast
1:53 AM 54.0 °F - 36.0 °F 51% 29.65 in 10.0 mi NNW 25.3 mph 34.5 mph N/A   Overcast
2:53 AM 52.0 °F - 34.0 °F 50% 29.66 in 10.0 mi NNW 24.2 mph 33.4 mph N/A   Overcast
3:53 AM 51.1 °F - 36.0 °F 56% 29.68 in 10.0 mi NNW 23.0 mph 32.2 mph 0.00 in   Overcast
4:53 AM 50.0 °F - 36.0 °F 59% 29.68 in 10.0 mi NNW 25.3 mph 32.2 mph N/A   Overcast
5:53 AM 45.0 °F 38.5 °F 41.0 °F 86% 29.73 in 10.0 mi NW 13.8 mph 24.2 mph 0.03 in Rain Light Rain
6:53 AM 45.0 °F 37.6 °F 39.9 °F 82% 29.74 in 10.0 mi NW 17.3 mph 24.2 mph 0.01 in   Overcast
7:53 AM 45.0 °F 36.6 °F 37.9 °F 76% 29.77 in 10.0 mi NW 21.9 mph 27.6 mph N/A   Overcast
8:53 AM 45.0 °F 37.6 °F 37.9 °F 76% 29.79 in 10.0 mi NNW 17.3 mph 28.8 mph N/A   Overcast
9:53 AM 46.0 °F 38.3 °F 37.0 °F 71% 29.78 in 10.0 mi NW 20.7 mph 27.6 mph N/A   Overcast
10:53 AM 48.9 °F - 37.0 °F 64% 29.77 in 10.0 mi NW 26.5 mph 32.2 mph N/A   Overcast
11:53 AM 53.1 °F - 37.0 °F 55% 29.76 in 10.0 mi NW 29.9 mph 39.1 mph N/A   Scattered Clouds
12:53 PM 52.0 °F - 37.0 °F 57% 29.77 in 10.0 mi NW 28.8 mph 35.7 mph N/A   Overcast
1:53 PM 53.1 °F - 37.0 °F 55% 29.79 in 10.0 mi NW 27.6 mph 38.0 mph N/A   Overcast
2:53 PM 52.0 °F - 32.0 °F 47% 29.81 in 10.0 mi NNW 23.0 mph 35.7 mph N/A   Overcast
3:53 PM 54.0 °F - 30.0 °F 40% 29.83 in 10.0 mi NNW 28.8 mph 36.8 mph N/A   Overcast
4:53 PM 53.1 °F - 25.0 °F 34% 29.86 in 10.0 mi NW 27.6 mph 38.0 mph N/A   Overcast
5:53 PM 53.1 °F - 21.9 °F 30% 29.89 in 10.0 mi NW 25.3 mph 39.1 mph N/A   Overcast
6:53 PM 51.1 °F - 21.9 °F 32% 29.92 in 10.0 mi NW 17.3 mph 32.2 mph N/A   Overcast
7:53 PM 48.0 °F - 25.0 °F 41% 29.95 in 10.0 mi WNW 17.3 mph 23.0 mph N/A   Partly Cloudy
8:53 PM 48.0 °F - 28.0 °F 46% 29.97 in 10.0 mi WNW 18.4 mph - N/A   Clear
9:53 PM 45.0 °F 38.5 °F 33.1 °F 63% 29.99 in 10.0 mi WNW 13.8 mph - N/A   Clear
10:53 PM 42.1 °F 35.2 °F 33.1 °F 70% 30.00 in 10.0 mi WNW 12.7 mph - N/A   Clear
11:53 PM 39.0 °F 32.8 °F 32.0 °F 76% 30.01 in 10.0 mi WNW 9.2 mph - N/A   Clear